Simultaneous Nadir Overpasses (SNOs) Predictions

Prediction of SNOs between GOES-16 and FY3D Satellite Orbit:

Table of predicted SNOs for the next 14.0 days since TLE Epoch: 6/20/2020
Index Date Time (GOES-16) GOES-16 Lat,Lon FY3D Lat,Lon Distance(km) Time Diff (sec)
1 06/21/2020 06:43:00 0.01, -75.20 0.57, -77.70 284.57 80
2 06/22/2020 06:21:24 0.00, -75.20 -0.44, -73.11 237.62 80
3 06/23/2020 18:43:03 -0.00, -75.22 -0.72, -78.34 357.07 80
4 06/24/2020 18:26:48 0.00, -75.22 0.35, -73.77 165.59 80
5 06/26/2020 06:48:17 0.00, -75.23 0.83, -78.96 425.14 80
6 06/27/2020 06:26:41 0.00, -75.24 -0.17, -74.38 97.83 80
7 06/28/2020 18:48:20 -0.01, -75.26 -0.98, -79.61 495.75 80
8 06/29/2020 18:32:03 -0.00, -75.27 0.03, -75.03 27.71 80
9 07/02/2020 06:34:37 -0.01, -75.31 0.09, -75.64 38.91 80
10 07/03/2020 06:13:02 -0.01, -75.32 -0.97, -71.07 484.71 80




NCC Satellite Simultaneous Nadir Overpasses (SNOs) Prediction Service
